Retour au catalogue

CUBESX-HSE-3

ActifScienceSSO
NORAD 57178·PAYLOAD·🇷🇺 Russia
Ce nom de satellite n'a pas encore été confirmé par des sources officielles.

Lancé Jun 27, 2023 depuis Vostochny Cosmodrome

Loading…

Prochains Passages (prochaines 24 heures)

TLE

FraisSource: Space-Track

Époque: Sep 14, 2026, 10:45 UTC

1 57178U 23091N   26257.44797265  .00010260  00000-0  32190-3 0  9996
2 57178  97.5001 324.2502 0011347 130.7506 229.4722 15.33175488178096

Suivez CUBESX-HSE-3 en temps réel avec AllMySat

Download on the App Store